TimeEST,TemperatureF,Dew PointF,Humidity,Sea Level PressureIn,VisibilityMPH,Wind Direction,Wind SpeedMPH,Gust SpeedMPH,PrecipitationIn,Events,Conditions,WindDirDegrees,DateUTC
12:14 AM,29.7,19.9,67,30.13,10.0,SSW,5.8,-,N/A,,Mostly Cloudy,210,2012-11-28 05:14:00
12:54 AM,30.2,20.3,67,30.13,10.0,SSW,4.6,-,N/A,,Overcast,210,2012-11-28 05:54:00
1:35 AM,30.6,20.7,67,30.12,10.0,SW,3.5,-,N/A,,Overcast,230,2012-11-28 06:35:00
1:54 AM,30.9,20.5,65,30.12,10.0,WSW,6.9,-,N/A,,Overcast,250,2012-11-28 06:54:00
2:14 AM,30.9,21.0,67,30.13,10.0,West,5.8,-,N/A,,Overcast,270,2012-11-28 07:14:00
2:35 AM,30.6,23.2,74,30.13,3.0,West,6.9,-,N/A,Snow,Light Snow,280,2012-11-28 07:35:00
2:54 AM,30.2,24.8,80,30.13,4.0,West,5.8,-,N/A,Snow,Light Snow,270,2012-11-28 07:54:00
3:14 AM,30.0,25.5,83,30.14,2.5,West,5.8,-,N/A,Snow,Light Snow,270,2012-11-28 08:14:00
3:35 AM,30.2,25.5,83,30.14,5.0,West,5.8,-,N/A,Snow,Light Snow,270,2012-11-28 08:35:00
3:54 AM,30.2,25.7,83,30.14,10.0,West,3.5,-,N/A,,Overcast,270,2012-11-28 08:54:00
4:15 AM,30.6,25.7,82,30.14,10.0,WSW,3.5,-,N/A,,Overcast,240,2012-11-28 09:15:00
4:35 AM,30.6,25.7,82,30.14,10.0,West,5.8,-,N/A,,Overcast,280,2012-11-28 09:35:00
4:54 AM,30.6,25.7,82,30.14,10.0,West,4.6,-,N/A,,Overcast,260,2012-11-28 09:54:00
5:15 AM,30.7,25.7,82,30.15,10.0,WSW,4.6,-,N/A,,Overcast,250,2012-11-28 10:15:00
5:34 AM,30.7,25.3,80,30.15,10.0,WSW,4.6,-,N/A,,Overcast,250,2012-11-28 10:34:00
5:54 AM,30.7,25.3,80,30.16,10.0,Calm,Calm,-,N/A,,Overcast,0,2012-11-28 10:54:00
6:15 AM,30.7,25.3,80,30.16,10.0,West,3.5,-,N/A,,Overcast,260,2012-11-28 11:15:00
6:34 AM,30.9,24.8,78,30.16,10.0,West,5.8,-,N/A,,Overcast,280,2012-11-28 11:34:00
6:54 AM,31.3,24.6,76,30.17,10.0,West,5.8,-,N/A,,Overcast,280,2012-11-28 11:54:00
7:15 AM,31.1,24.4,76,30.17,10.0,West,5.8,-,N/A,,Overcast,280,2012-11-28 12:15:00
7:34 AM,31.1,24.1,75,30.18,10.0,West,6.9,-,N/A,,Overcast,280,2012-11-28 12:34:00
7:54 AM,30.0,23.7,77,30.18,10.0,West,5.8,-,N/A,,Overcast,280,2012-11-28 12:54:00
8:15 AM,29.8,23.4,77,30.19,10.0,West,5.8,-,N/A,,Scattered Clouds,280,2012-11-28 13:15:00
8:34 AM,29.8,23.2,76,30.19,10.0,West,4.6,-,N/A,,Clear,270,2012-11-28 13:34:00
8:55 AM,31.1,23.5,74,30.21,10.0,West,8.1,-,N/A,,Mostly Cloudy,280,2012-11-28 13:55:00
9:14 AM,31.8,23.5,71,30.21,10.0,West,10.4,-,N/A,,Overcast,280,2012-11-28 14:14:00
9:34 AM,32.0,23.0,69,30.22,10.0,WNW,8.1,-,N/A,,Overcast,290,2012-11-28 14:34:00
9:55 AM,32.2,23.5,70,30.22,10.0,WNW,9.2,-,N/A,,Overcast,290,2012-11-28 14:55:00
10:14 AM,32.9,23.5,68,30.22,10.0,WNW,10.4,-,N/A,,Overcast,290,2012-11-28 15:14:00
10:35 AM,32.9,23.4,68,30.24,10.0,WNW,11.5,-,N/A,,Overcast,290,2012-11-28 15:35:00
10:54 AM,33.3,23.2,67,30.24,10.0,WNW,15.0,18.4,N/A,,Overcast,290,2012-11-28 15:54:00
11:14 AM,33.8,22.8,64,30.24,10.0,WNW,16.1,20.7,N/A,,Overcast,300,2012-11-28 16:14:00
11:35 AM,34.0,20.5,58,30.24,10.0,West,15.0,24.2,N/A,,Overcast,280,2012-11-28 16:35:00
11:54 AM,32.9,19.6,58,30.24,10.0,WNW,16.1,19.6,N/A,,Mostly Cloudy,300,2012-11-28 16:54:00
12:15 PM,34.5,19.8,55,30.23,10.0,WNW,15.0,18.4,N/A,,Clear,290,2012-11-28 17:15:00
12:34 PM,34.7,19.2,53,30.23,10.0,West,11.5,19.6,N/A,,Scattered Clouds,280,2012-11-28 17:34:00
12:54 PM,34.3,20.1,56,30.22,10.0,NNW,15.0,-,N/A,,Mostly Cloudy,330,2012-11-28 17:54:00
1:15 PM,33.8,20.1,57,30.23,10.0,NW,9.2,18.4,N/A,,Scattered Clouds,310,2012-11-28 18:15:00
1:34 PM,33.1,19.9,59,30.23,10.0,NW,11.5,-,N/A,,Scattered Clouds,320,2012-11-28 18:34:00
1:54 PM,34.0,20.1,57,30.23,10.0,NW,12.7,-,N/A,,Scattered Clouds,320,2012-11-28 18:54:00
2:15 PM,35.6,19.0,51,30.23,10.0,West,13.8,18.4,N/A,,Mostly Cloudy,270,2012-11-28 19:15:00
2:34 PM,34.7,18.9,52,30.23,10.0,West,11.5,-,N/A,,Scattered Clouds,270,2012-11-28 19:34:00
2:55 PM,34.2,18.7,53,30.24,10.0,West,13.8,20.7,N/A,,Clear,280,2012-11-28 19:55:00
3:14 PM,33.8,19.0,55,30.23,10.0,WNW,12.7,-,N/A,,Clear,290,2012-11-28 20:14:00
3:34 PM,33.3,18.1,54,30.23,10.0,West,11.5,16.1,N/A,,Scattered Clouds,280,2012-11-28 20:34:00
3:55 PM,33.1,18.3,55,30.23,10.0,West,9.2,16.1,N/A,,Scattered Clouds,280,2012-11-28 20:55:00
4:14 PM,32.9,18.3,55,30.23,10.0,WNW,8.1,-,N/A,,Scattered Clouds,290,2012-11-28 21:14:00
4:34 PM,32.0,19.2,59,30.23,10.0,West,9.2,-,N/A,,Scattered Clouds,280,2012-11-28 21:34:00
4:55 PM,31.6,18.1,57,30.23,10.0,West,5.8,-,N/A,,Clear,280,2012-11-28 21:55:00
5:14 PM,31.1,18.1,59,30.24,10.0,West,5.8,-,N/A,,Clear,280,2012-11-28 22:14:00
5:34 PM,29.8,18.3,62,30.24,10.0,Calm,Calm,-,N/A,,Clear,0,2012-11-28 22:34:00
5:55 PM,30.6,18.3,60,30.24,10.0,Calm,Calm,-,N/A,,Mostly Cloudy,0,2012-11-28 22:55:00
6:14 PM,29.5,18.9,65,30.25,10.0,Calm,Calm,-,N/A,,Overcast,0,2012-11-28 23:14:00
6:34 PM,29.1,18.3,64,30.25,10.0,Calm,Calm,-,N/A,,Scattered Clouds,0,2012-11-28 23:34:00
6:55 PM,26.8,18.9,72,30.24,10.0,Calm,Calm,-,N/A,,Clear,0,2012-11-28 23:55:00
7:14 PM,27.1,18.5,70,30.24,10.0,Calm,Calm,-,N/A,,Clear,0,2012-11-29 00:14:00
7:35 PM,27.1,18.5,70,30.23,10.0,SSW,3.5,-,N/A,,Clear,210,2012-11-29 00:35:00
7:54 PM,27.3,18.9,70,30.23,10.0,SW,3.5,-,N/A,,Clear,220,2012-11-29 00:54:00
8:14 PM,27.7,19.0,70,30.24,10.0,SSW,3.5,-,N/A,,Clear,210,2012-11-29 01:14:00
8:35 PM,27.0,19.4,73,30.23,10.0,SW,3.5,-,N/A,,Clear,220,2012-11-29 01:35:00
8:54 PM,27.3,19.6,73,30.23,10.0,SSW,3.5,-,N/A,,Clear,210,2012-11-29 01:54:00
9:14 PM,27.0,19.9,75,30.23,10.0,SSW,3.5,-,N/A,,Clear,210,2012-11-29 02:14:00
9:35 PM,27.0,20.1,75,30.22,10.0,SSW,3.5,-,N/A,,Clear,210,2012-11-29 02:35:00
9:54 PM,27.1,20.5,76,30.22,10.0,SSW,3.5,-,N/A,,Clear,200,2012-11-29 02:54:00
10:14 PM,26.6,20.5,78,30.22,10.0,SSW,3.5,-,N/A,,Clear,200,2012-11-29 03:14:00
10:35 PM,27.5,21.4,78,30.21,10.0,SSW,3.5,-,N/A,,Clear,210,2012-11-29 03:35:00
10:54 PM,27.9,21.7,78,30.20,10.0,SSW,4.6,-,N/A,,Clear,200,2012-11-29 03:54:00
11:14 PM,28.6,22.3,77,30.20,10.0,SSW,4.6,-,N/A,,Clear,200,2012-11-29 04:14:00
11:35 PM,29.3,23.0,77,30.19,10.0,SSW,4.6,-,N/A,,Clear,200,2012-11-29 04:35:00
11:54 PM,29.3,23.0,77,30.19,10.0,SSW,4.6,-,N/A,,Clear,210,2012-11-29 04:54:00